TimeMST,TemperatureF,Dew PointF,Humidity,Sea Level PressureIn,VisibilityMPH,Wind Direction,Wind SpeedMPH,Gust SpeedMPH,PrecipitationIn,Events,Conditions,WindDirDegrees,DateUTC
12:53 AM,18.0,7.0,62,30.55,10.0,West,12.7,-,N/A,,Clear,280,2011-11-27 07:53:00
1:53 AM,19.0,8.1,62,30.53,10.0,West,11.5,-,N/A,,Clear,280,2011-11-27 08:53:00
3:53 AM,19.9,8.1,60,30.50,10.0,West,11.5,-,N/A,,Clear,270,2011-11-27 10:53:00
4:53 AM,16.0,7.0,68,30.52,10.0,West,18.4,-,N/A,,Clear,260,2011-11-27 11:53:00
5:53 AM,16.0,7.0,68,30.52,10.0,West,15.0,-,N/A,,Clear,270,2011-11-27 12:53:00
6:53 AM,19.9,8.1,60,30.50,10.0,West,13.8,-,N/A,,Clear,270,2011-11-27 13:53:00
8:53 AM,30.0,10.0,43,30.48,10.0,West,13.8,-,N/A,,Clear,270,2011-11-27 15:53:00
9:53 AM,37.9,10.9,33,30.45,10.0,West,13.8,-,N/A,,Clear,270,2011-11-27 16:53:00
10:53 AM,46.0,10.0,23,30.40,10.0,NW,13.8,-,N/A,,Clear,310,2011-11-27 17:53:00
11:53 AM,50.0,10.0,20,30.36,10.0,WNW,16.1,21.9,N/A,,Clear,300,2011-11-27 18:53:00
12:53 PM,52.0,10.9,19,30.32,10.0,WNW,13.8,-,N/A,,Clear,290,2011-11-27 19:53:00
1:53 PM,54.0,10.9,18,30.28,10.0,WNW,13.8,19.6,N/A,,Clear,290,2011-11-27 20:53:00
2:53 PM,54.0,10.9,18,30.27,10.0,NW,9.2,-,N/A,,Clear,310,2011-11-27 21:53:00
3:53 PM,50.0,10.9,21,30.27,10.0,NNW,4.6,-,N/A,,Clear,330,2011-11-27 22:53:00
4:53 PM,48.0,10.9,22,30.28,10.0,Calm,Calm,-,N/A,,Clear,0,2011-11-27 23:53:00
5:53 PM,37.9,10.9,33,30.31,10.0,SSW,6.9,-,N/A,,Clear,200,2011-11-28 00:53:00
6:53 PM,37.9,10.0,32,30.28,10.0,SSW,9.2,-,N/A,,Clear,200,2011-11-28 01:53:00
7:53 PM,37.9,10.9,33,30.25,10.0,SSW,8.1,-,N/A,,Clear,210,2011-11-28 02:53:00
8:53 PM,36.0,12.0,37,30.24,10.0,SSW,9.2,-,N/A,,Clear,200,2011-11-28 03:53:00
9:53 PM,37.9,12.0,35,30.18,10.0,SW,10.4,-,N/A,,Clear,220,2011-11-28 04:53:00
10:53 PM,37.9,12.0,35,30.14,10.0,SW,11.5,-,N/A,,Clear,230,2011-11-28 05:53:00
11:53 PM,37.9,12.0,35,30.12,10.0,SW,10.4,-,N/A,,Clear,230,2011-11-28 06:53:00